207P/NEAT (2008)

Japanese version
Home page
Updated on March 17, 2010

---------------------------------------------------------------------

* Profile

Designation 207P/2008 T5
Recovery Date October 15, 2008
Magnitude 16.4 mag
Recoverer Ken-ichi Kadota (Ageo, Saitama-ken, Japan)

* Pictures

* Orbital Elements

                    Epoch = 2008 Oct. 21.0 TT
     T = 2008 Nov.  6.2551 TT         Peri. = 271.1732
     e = 0.757141                     Node  = 200.6744  2000.0
     q = 0.944153 AU                  Incl. =  10.1500
       a =  3.887655 AU    n = 0.1285797    P =   7.665 years

* Finding Charts

* Magnitudes Graph

        m1 = 16.0 + 5 log d + 10.0 log r

---------------------------------------------------------------------

The orbital elements are printed on IAUC 8996.
The charts are made with StellaNavigator Ver.8 (AstroArts).
The magnitudes graphs are made with Comet for Windows.

---------------------------------------------------------------------

Copyright(C) Seiichi Yoshida (comet@aerith.net). All rights reserved.